Year,Month,Day,Hour,Minute,Value (Times are PST for temperature in C)
2016,04,08,00,00,11.20
2016,04,08,00,01,11.10
2016,04,08,00,02,11.10
2016,04,08,00,03,11.10
2016,04,08,00,04,11.10
2016,04,08,00,05,11.10
2016,04,08,00,06,11.10
2016,04,08,00,07,11.10
2016,04,08,00,08,11.10
2016,04,08,00,09,11.10
2016,04,08,00,10,11.00
2016,04,08,00,11,11.00
2016,04,08,00,12,11.00
2016,04,08,00,13,11.00
2016,04,08,00,14,11.00
2016,04,08,00,15,11.00
2016,04,08,00,16,11.00
2016,04,08,00,17,11.00
2016,04,08,00,18,11.00
2016,04,08,00,19,11.00
2016,04,08,00,20,11.00
2016,04,08,00,21,11.00
2016,04,08,00,22,11.00
2016,04,08,00,23,11.00
2016,04,08,00,24,11.00
2016,04,08,00,25,11.00
2016,04,08,00,26,11.00
2016,04,08,00,27,10.90
2016,04,08,00,28,10.80
2016,04,08,00,29,10.70
2016,04,08,00,30,10.60
2016,04,08,00,31,10.50
2016,04,08,00,32,10.40
2016,04,08,00,33,10.30
2016,04,08,00,34,10.30
2016,04,08,00,35,10.30
2016,04,08,00,36,10.20
2016,04,08,00,37,10.20
2016,04,08,00,38,10.20
2016,04,08,00,39,10.20
2016,04,08,00,40,10.20
2016,04,08,00,41,10.20
2016,04,08,00,42,10.20
2016,04,08,00,43,10.20
2016,04,08,00,44,10.20
2016,04,08,00,45,10.20
2016,04,08,00,46,10.20
2016,04,08,00,47,10.20
2016,04,08,00,48,10.20
2016,04,08,00,49,10.20
2016,04,08,00,50,10.20
2016,04,08,00,51,10.20
2016,04,08,00,52,10.10
2016,04,08,00,53,10.00
2016,04,08,00,54,10.00
2016,04,08,00,55,9.90
2016,04,08,00,56,9.90
2016,04,08,00,57,9.90
2016,04,08,00,58,9.80
2016,04,08,00,59,9.80
2016,04,08,01,00,9.80
2016,04,08,01,01,9.80
2016,04,08,01,02,9.80
2016,04,08,01,03,9.80
2016,04,08,01,04,9.80
2016,04,08,01,05,9.80
2016,04,08,01,06,9.80
2016,04,08,01,07,9.80
2016,04,08,01,08,9.80
2016,04,08,01,09,9.80
2016,04,08,01,10,9.80
2016,04,08,01,11,9.80
2016,04,08,01,12,9.80
2016,04,08,01,13,9.80
2016,04,08,01,14,9.80
2016,04,08,01,15,9.80
2016,04,08,01,16,9.90
2016,04,08,01,17,9.90
2016,04,08,01,18,9.90
2016,04,08,01,19,9.90
2016,04,08,01,20,9.90
2016,04,08,01,21,9.90
2016,04,08,01,22,9.80
2016,04,08,01,23,9.80
2016,04,08,01,24,9.70
2016,04,08,01,25,9.70
2016,04,08,01,26,9.60
2016,04,08,01,27,9.60
2016,04,08,01,28,9.60
2016,04,08,01,29,9.60
2016,04,08,01,30,9.60
2016,04,08,01,31,9.60
2016,04,08,01,32,9.60
2016,04,08,01,33,9.60
2016,04,08,01,34,9.60
2016,04,08,01,35,9.60
2016,04,08,01,36,9.60
2016,04,08,01,37,9.60
2016,04,08,01,38,9.60
2016,04,08,01,39,9.50
2016,04,08,01,40,9.50
2016,04,08,01,41,9.40
2016,04,08,01,42,9.40
2016,04,08,01,43,9.40
2016,04,08,01,44,9.30
2016,04,08,01,45,9.30
2016,04,08,01,46,9.20
2016,04,08,01,47,9.20
2016,04,08,01,48,9.20
2016,04,08,01,49,9.20
2016,04,08,01,50,9.10
2016,04,08,01,51,9.20
2016,04,08,01,52,9.20
2016,04,08,01,53,9.20
2016,04,08,01,54,9.20
2016,04,08,01,55,9.30
2016,04,08,01,56,9.30
2016,04,08,01,57,9.30
2016,04,08,01,58,9.20
2016,04,08,01,59,9.20
2016,04,08,02,00,9.10
2016,04,08,02,01,9.10
2016,04,08,02,02,9.00
2016,04,08,02,03,8.90
2016,04,08,02,04,8.80
2016,04,08,02,05,8.80
2016,04,08,02,06,8.80
2016,04,08,02,07,8.80
2016,04,08,02,08,8.80
2016,04,08,02,09,8.80
2016,04,08,02,10,8.80
2016,04,08,02,11,8.80
2016,04,08,02,12,8.80
2016,04,08,02,13,8.70
2016,04,08,02,14,8.70
2016,04,08,02,15,8.70
2016,04,08,02,16,8.60
2016,04,08,02,17,8.60
2016,04,08,02,18,8.50
2016,04,08,02,19,8.50
2016,04,08,02,20,8.50
2016,04,08,02,21,8.40
2016,04,08,02,22,8.40
2016,04,08,02,23,8.40
2016,04,08,02,24,8.50
2016,04,08,02,25,8.50
2016,04,08,02,26,8.50
2016,04,08,02,27,8.60
2016,04,08,02,28,8.60
2016,04,08,02,29,8.60
2016,04,08,02,30,8.60
2016,04,08,02,31,8.60
2016,04,08,02,32,8.50
2016,04,08,02,33,8.50
2016,04,08,02,34,8.40
2016,04,08,02,35,8.40
2016,04,08,02,36,8.40
2016,04,08,02,37,8.40
2016,04,08,02,38,8.40
2016,04,08,02,39,8.40
2016,04,08,02,40,8.40
2016,04,08,02,41,8.40
2016,04,08,02,42,8.40
2016,04,08,02,43,8.40
2016,04,08,02,44,8.30
2016,04,08,02,45,8.30
2016,04,08,02,46,8.40
2016,04,08,02,47,8.40
2016,04,08,02,48,8.40
2016,04,08,02,49,8.40
2016,04,08,02,50,8.40
2016,04,08,02,51,8.40
2016,04,08,02,52,8.30
2016,04,08,02,53,8.30
2016,04,08,02,54,8.20
2016,04,08,02,55,8.20
2016,04,08,02,56,8.20
2016,04,08,02,57,8.10
2016,04,08,02,58,8.10
2016,04,08,02,59,8.10
2016,04,08,03,00,8.10
2016,04,08,03,01,8.10
2016,04,08,03,02,8.10
2016,04,08,03,03,8.00
2016,04,08,03,04,8.00
2016,04,08,03,05,8.00
2016,04,08,03,06,8.00
2016,04,08,03,07,8.00
2016,04,08,03,08,8.00
2016,04,08,03,09,8.00
2016,04,08,03,10,8.00
2016,04,08,03,11,8.00
2016,04,08,03,12,8.00
2016,04,08,03,13,8.00
2016,04,08,03,14,8.00
2016,04,08,03,15,8.00
2016,04,08,03,16,8.10
2016,04,08,03,17,8.10
2016,04,08,03,18,8.10
2016,04,08,03,19,8.10
2016,04,08,03,20,8.10
2016,04,08,03,21,8.10
2016,04,08,03,22,8.20
2016,04,08,03,23,8.20
2016,04,08,03,24,8.20
2016,04,08,03,25,8.30
2016,04,08,03,26,8.30
2016,04,08,03,27,8.30
2016,04,08,03,28,8.40
2016,04,08,03,29,8.40
2016,04,08,03,30,8.40
2016,04,08,03,31,8.40
2016,04,08,03,32,8.40
2016,04,08,03,33,8.40
2016,04,08,03,34,8.40
2016,04,08,03,35,8.40
2016,04,08,03,36,8.50
2016,04,08,03,37,8.50
2016,04,08,03,38,8.50
2016,04,08,03,39,8.60
2016,04,08,03,40,8.60
2016,04,08,03,41,8.60
2016,04,08,03,42,8.60
2016,04,08,03,43,8.60
2016,04,08,03,44,8.60
2016,04,08,03,45,8.60
2016,04,08,03,46,8.70
2016,04,08,03,47,8.70
2016,04,08,03,48,8.70
2016,04,08,03,49,8.70
2016,04,08,03,50,8.70
2016,04,08,03,51,8.70
2016,04,08,03,52,8.70
2016,04,08,03,53,8.70
2016,04,08,03,54,8.70
2016,04,08,03,55,8.70
2016,04,08,03,56,8.70
2016,04,08,03,57,8.70
2016,04,08,03,58,8.70
2016,04,08,03,59,8.70
2016,04,08,04,00,8.70
2016,04,08,04,01,8.80
2016,04,08,04,02,8.80
2016,04,08,04,03,8.80
2016,04,08,04,04,8.80
2016,04,08,04,05,8.80
2016,04,08,04,06,8.80
2016,04,08,04,07,8.80
2016,04,08,04,08,8.80
2016,04,08,04,09,8.80
2016,04,08,04,10,8.80
2016,04,08,04,11,8.80
2016,04,08,04,12,8.80
2016,04,08,04,13,8.80
2016,04,08,04,14,8.80
2016,04,08,04,15,8.80
2016,04,08,04,16,8.80
2016,04,08,04,17,8.80
2016,04,08,04,18,8.80
2016,04,08,04,19,8.80
2016,04,08,04,20,8.80
2016,04,08,04,21,8.80
2016,04,08,04,22,8.80
2016,04,08,04,23,8.80
2016,04,08,04,24,8.80
2016,04,08,04,25,8.80
2016,04,08,04,26,8.80
2016,04,08,04,27,8.80
2016,04,08,04,28,8.90
2016,04,08,04,29,8.90
2016,04,08,04,30,8.90
2016,04,08,04,31,8.90
2016,04,08,04,32,8.90
2016,04,08,04,33,8.90
2016,04,08,04,34,8.90
2016,04,08,04,35,8.90
2016,04,08,04,36,8.90
2016,04,08,04,37,8.90
2016,04,08,04,38,8.90
2016,04,08,04,39,8.90
2016,04,08,04,40,8.90
2016,04,08,04,41,8.90
2016,04,08,04,42,8.90
2016,04,08,04,43,8.90
2016,04,08,04,44,8.90
2016,04,08,04,45,9.00
2016,04,08,04,46,9.00
2016,04,08,04,47,9.00
2016,04,08,04,48,9.10
2016,04,08,04,49,9.10
2016,04,08,04,50,9.10
2016,04,08,04,51,9.10
2016,04,08,04,52,9.10
2016,04,08,04,53,9.00
2016,04,08,04,54,8.80
2016,04,08,04,55,8.70
2016,04,08,04,56,8.60
2016,04,08,04,57,8.50
2016,04,08,04,58,8.50
2016,04,08,04,59,8.50
2016,04,08,05,00,8.40
2016,04,08,05,01,8.40
2016,04,08,05,02,8.30
2016,04,08,05,03,8.30
2016,04,08,05,04,8.20
2016,04,08,05,05,8.20
2016,04,08,05,06,8.10
2016,04,08,05,07,8.00
2016,04,08,05,08,7.80
2016,04,08,05,09,7.80
2016,04,08,05,10,7.70
2016,04,08,05,11,7.60
2016,04,08,05,12,7.60
2016,04,08,05,13,7.50
2016,04,08,05,14,7.50
2016,04,08,05,15,7.50
2016,04,08,05,16,7.50
2016,04,08,05,17,7.40
2016,04,08,05,18,7.50
2016,04,08,05,19,7.50
2016,04,08,05,20,7.50
2016,04,08,05,21,7.50
2016,04,08,05,22,7.60
2016,04,08,05,23,7.60
2016,04,08,05,24,7.70
2016,04,08,05,25,7.80
2016,04,08,05,26,7.80
2016,04,08,05,27,7.90
2016,04,08,05,28,8.00
2016,04,08,05,29,8.00
2016,04,08,05,30,8.00
2016,04,08,05,31,8.10
2016,04,08,05,32,8.00
2016,04,08,05,33,8.00
2016,04,08,05,34,8.00
2016,04,08,05,35,8.00
2016,04,08,05,36,8.00
2016,04,08,05,37,8.00
2016,04,08,05,38,7.90
2016,04,08,05,39,8.00
2016,04,08,05,40,8.00
2016,04,08,05,41,8.00
2016,04,08,05,42,8.00
2016,04,08,05,43,8.10
2016,04,08,05,44,8.10
2016,04,08,05,45,8.10
2016,04,08,05,46,8.10
2016,04,08,05,47,8.10
2016,04,08,05,48,8.10
2016,04,08,05,49,8.10
2016,04,08,05,50,8.10
2016,04,08,05,51,8.10
2016,04,08,05,52,8.10
2016,04,08,05,53,8.10
2016,04,08,05,54,8.10
2016,04,08,05,55,8.10
2016,04,08,05,56,8.10
2016,04,08,05,57,8.20
2016,04,08,05,58,8.20
2016,04,08,05,59,8.20
2016,04,08,06,00,8.20
2016,04,08,06,01,8.20
2016,04,08,06,02,8.20
2016,04,08,06,03,8.20
2016,04,08,06,04,8.20
2016,04,08,06,05,8.20
2016,04,08,06,06,8.20
2016,04,08,06,07,8.20
2016,04,08,06,08,8.20
2016,04,08,06,09,8.20
2016,04,08,06,10,8.20
2016,04,08,06,11,8.20
2016,04,08,06,12,8.20
2016,04,08,06,13,8.20
2016,04,08,06,14,8.20
2016,04,08,06,15,8.20
2016,04,08,06,16,8.20
2016,04,08,06,17,8.20
2016,04,08,06,18,8.20
2016,04,08,06,19,8.20
2016,04,08,06,20,8.20
2016,04,08,06,21,8.20
2016,04,08,06,22,8.10
2016,04,08,06,23,8.20
2016,04,08,06,24,8.20
2016,04,08,06,25,8.20
2016,04,08,06,26,8.20
2016,04,08,06,27,8.20
2016,04,08,06,28,8.20
2016,04,08,06,29,8.20
2016,04,08,06,30,8.20
2016,04,08,06,31,8.30
2016,04,08,06,32,8.30
2016,04,08,06,33,8.30
2016,04,08,06,34,8.30
2016,04,08,06,35,8.30
2016,04,08,06,36,8.30
2016,04,08,06,37,8.30
2016,04,08,06,38,8.30
2016,04,08,06,39,8.30
2016,04,08,06,40,8.30
2016,04,08,06,41,8.30
2016,04,08,06,42,8.30
2016,04,08,06,43,8.30
2016,04,08,06,44,8.30
2016,04,08,06,45,8.30
2016,04,08,06,46,8.30
2016,04,08,06,47,8.40
2016,04,08,06,48,8.40
2016,04,08,06,49,8.40
2016,04,08,06,50,8.40
2016,04,08,06,51,8.40
2016,04,08,06,52,8.40
2016,04,08,06,53,8.40
2016,04,08,06,54,8.40
2016,04,08,06,55,8.40
2016,04,08,06,56,8.40
2016,04,08,06,57,8.40
2016,04,08,06,58,8.50
2016,04,08,06,59,8.50
2016,04,08,07,00,8.50
2016,04,08,07,01,8.50
2016,04,08,07,02,8.50
2016,04,08,07,03,8.60
2016,04,08,07,04,8.60
2016,04,08,07,05,8.60
2016,04,08,07,06,8.60
2016,04,08,07,07,8.60
2016,04,08,07,08,8.60
2016,04,08,07,09,8.70
2016,04,08,07,10,8.70
2016,04,08,07,11,8.70
2016,04,08,07,12,8.80
2016,04,08,07,13,8.80
2016,04,08,07,14,8.80
2016,04,08,07,15,8.80
2016,04,08,07,16,8.90
2016,04,08,07,17,8.90
2016,04,08,07,18,9.00
2016,04,08,07,19,9.00
2016,04,08,07,20,9.00
2016,04,08,07,21,9.00
2016,04,08,07,22,9.10
2016,04,08,07,23,9.10
2016,04,08,07,24,9.00
2016,04,08,07,25,9.00
2016,04,08,07,26,9.00
2016,04,08,07,27,9.00
2016,04,08,07,28,9.00
2016,04,08,07,29,9.10
2016,04,08,07,30,9.10
2016,04,08,07,31,9.00
2016,04,08,07,32,9.00
2016,04,08,07,33,8.90
2016,04,08,07,34,8.90
2016,04,08,07,35,8.80
2016,04,08,07,36,8.70
2016,04,08,07,37,8.70
2016,04,08,07,38,8.70
2016,04,08,07,39,8.70
2016,04,08,07,40,8.70
2016,04,08,07,41,8.70
2016,04,08,07,42,8.70
2016,04,08,07,43,8.70
2016,04,08,07,44,8.80
2016,04,08,07,45,8.80
2016,04,08,07,46,8.80
2016,04,08,07,47,8.90
2016,04,08,07,48,8.90
2016,04,08,07,49,8.90
2016,04,08,07,50,8.90
2016,04,08,07,51,8.90
2016,04,08,07,52,8.90
2016,04,08,07,53,8.80
2016,04,08,07,54,8.80
2016,04,08,07,55,8.80
2016,04,08,07,56,8.80
2016,04,08,07,57,8.80
2016,04,08,07,58,8.80
2016,04,08,07,59,8.90
2016,04,08,08,00,8.90
2016,04,08,08,01,9.00
2016,04,08,08,02,9.10
2016,04,08,08,03,9.20
2016,04,08,08,04,9.30
2016,04,08,08,05,9.50
2016,04,08,08,06,9.60
2016,04,08,08,07,9.70
2016,04,08,08,08,9.80
2016,04,08,08,09,10.00
2016,04,08,08,10,10.10
2016,04,08,08,11,10.20
2016,04,08,08,12,10.30
2016,04,08,08,13,10.40
2016,04,08,08,14,10.50
2016,04,08,08,15,10.50
2016,04,08,08,16,10.60
2016,04,08,08,17,10.70
2016,04,08,08,18,10.80
2016,04,08,08,19,11.00
2016,04,08,08,20,11.10
2016,04,08,08,21,11.20
2016,04,08,08,22,11.30
2016,04,08,08,23,11.40
2016,04,08,08,24,11.50
2016,04,08,08,25,11.60
2016,04,08,08,26,11.70
2016,04,08,08,27,11.80
2016,04,08,08,28,11.90
2016,04,08,08,29,12.00
2016,04,08,08,30,12.10
2016,04,08,08,31,12.20
2016,04,08,08,32,12.30
2016,04,08,08,33,12.40
2016,04,08,08,34,12.40
2016,04,08,08,35,12.50
2016,04,08,08,36,12.60
2016,04,08,08,37,12.70
2016,04,08,08,38,12.80
2016,04,08,08,39,12.80
2016,04,08,08,40,12.80
2016,04,08,08,41,12.90
2016,04,08,08,42,12.90
2016,04,08,08,43,13.00
2016,04,08,08,44,13.10
2016,04,08,08,45,13.20
2016,04,08,08,46,13.30
2016,04,08,08,47,13.30
2016,04,08,08,48,13.40
2016,04,08,08,49,13.50
2016,04,08,08,50,13.50
2016,04,08,08,51,13.60
2016,04,08,08,52,13.60
2016,04,08,08,53,13.70
2016,04,08,08,54,13.70
2016,04,08,08,55,13.70
2016,04,08,08,56,13.70
2016,04,08,08,57,13.70
2016,04,08,08,58,13.80
2016,04,08,08,59,13.90
2016,04,08,09,00,14.00
2016,04,08,09,01,14.10
2016,04,08,09,02,14.20
2016,04,08,09,03,14.20
2016,04,08,09,04,14.30
2016,04,08,09,05,14.40
2016,04,08,09,06,14.50
2016,04,08,09,07,14.50
2016,04,08,09,08,14.60
2016,04,08,09,09,14.70
2016,04,08,09,10,14.70
2016,04,08,09,11,14.70
2016,04,08,09,12,14.80
2016,04,08,09,13,14.80
2016,04,08,09,14,14.90
2016,04,08,09,15,15.00
2016,04,08,09,16,15.00
2016,04,08,09,17,15.10
2016,04,08,09,18,15.20
2016,04,08,09,19,15.20
2016,04,08,09,20,15.30
2016,04,08,09,21,15.30
2016,04,08,09,22,15.40
2016,04,08,09,23,15.50
2016,04,08,09,24,15.50
2016,04,08,09,25,15.60
2016,04,08,09,26,15.60
2016,04,08,09,27,15.60
2016,04,08,09,28,15.60
2016,04,08,09,29,15.70
2016,04,08,09,30,15.70
2016,04,08,09,31,15.80
2016,04,08,09,32,15.80
2016,04,08,09,33,15.90
2016,04,08,09,34,15.90
2016,04,08,09,35,16.00
2016,04,08,09,36,16.10
2016,04,08,09,37,16.20
2016,04,08,09,38,16.30
2016,04,08,09,39,16.30
2016,04,08,09,40,16.40
2016,04,08,09,41,16.40
2016,04,08,09,42,16.50
2016,04,08,09,43,16.50
2016,04,08,09,44,16.60
2016,04,08,09,45,16.60
2016,04,08,09,46,16.70
2016,04,08,09,47,16.80
2016,04,08,09,48,16.80
2016,04,08,09,49,16.90
2016,04,08,09,50,16.90
2016,04,08,09,51,17.00
2016,04,08,09,52,17.00
2016,04,08,09,53,17.00
2016,04,08,09,54,17.00
2016,04,08,09,55,17.10
2016,04,08,09,56,17.20
2016,04,08,09,57,17.20
2016,04,08,09,58,17.30
2016,04,08,09,59,17.30
2016,04,08,10,00,17.40
2016,04,08,10,01,17.40
2016,04,08,10,02,17.50
2016,04,08,10,03,17.50
2016,04,08,10,04,17.60
2016,04,08,10,05,17.70
2016,04,08,10,06,17.70
2016,04,08,10,07,17.80
2016,04,08,10,08,17.80
2016,04,08,10,09,17.90
2016,04,08,10,10,18.00
2016,04,08,10,11,18.10
2016,04,08,10,12,18.10
2016,04,08,10,13,18.20
2016,04,08,10,14,18.20
2016,04,08,10,15,18.10
2016,04,08,10,16,18.10
2016,04,08,10,17,18.00
2016,04,08,10,18,17.90
2016,04,08,10,19,17.80
2016,04,08,10,20,17.70
2016,04,08,10,21,17.70
2016,04,08,10,22,17.70
2016,04,08,10,23,17.70
2016,04,08,10,24,17.70
2016,04,08,10,25,17.80
2016,04,08,10,26,17.90
2016,04,08,10,27,18.00
2016,04,08,10,28,18.20
2016,04,08,10,29,18.30
2016,04,08,10,30,18.40
2016,04,08,10,31,18.40
2016,04,08,10,32,18.40
2016,04,08,10,33,18.30
2016,04,08,10,34,18.20
2016,04,08,10,35,18.10
2016,04,08,10,36,18.00
2016,04,08,10,37,17.90
2016,04,08,10,38,17.80
2016,04,08,10,39,17.80
2016,04,08,10,40,17.80
2016,04,08,10,41,17.70
2016,04,08,10,42,17.60
2016,04,08,10,43,17.50
2016,04,08,10,44,17.40
2016,04,08,10,45,17.30
2016,04,08,10,46,17.10
2016,04,08,10,47,17.00
2016,04,08,10,48,16.90
2016,04,08,10,49,16.90
2016,04,08,10,50,16.80
2016,04,08,10,51,16.80
2016,04,08,10,52,16.80
2016,04,08,10,53,16.70
2016,04,08,10,54,16.70
2016,04,08,10,55,16.70
2016,04,08,10,56,16.80
2016,04,08,10,57,16.80
2016,04,08,10,58,16.90
2016,04,08,10,59,17.00
2016,04,08,11,00,17.10
2016,04,08,11,01,17.10
2016,04,08,11,02,17.10
2016,04,08,11,03,17.10
2016,04,08,11,04,17.10
2016,04,08,11,05,17.10
2016,04,08,11,06,17.00
2016,04,08,11,07,17.00
2016,04,08,11,08,16.90
2016,04,08,11,09,16.80
2016,04,08,11,10,16.80
2016,04,08,11,11,16.80
2016,04,08,11,12,16.80
2016,04,08,11,13,16.80
2016,04,08,11,14,16.80
2016,04,08,11,15,16.80
2016,04,08,11,16,16.90
2016,04,08,11,17,16.90
2016,04,08,11,18,17.00
2016,04,08,11,19,17.10
2016,04,08,11,20,17.10
2016,04,08,11,21,17.20
2016,04,08,11,22,17.30
2016,04,08,11,23,17.30
2016,04,08,11,24,17.40
2016,04,08,11,25,17.40
2016,04,08,11,26,17.50
2016,04,08,11,27,17.50
2016,04,08,11,28,17.40
2016,04,08,11,29,17.40
2016,04,08,11,30,17.40
2016,04,08,11,31,17.50
2016,04,08,11,32,17.50
2016,04,08,11,33,17.50
2016,04,08,11,34,17.50
2016,04,08,11,35,17.50
2016,04,08,11,36,17.40
2016,04,08,11,37,17.40
2016,04,08,11,38,17.50
2016,04,08,11,39,17.50
2016,04,08,11,40,17.50
2016,04,08,11,41,17.60
2016,04,08,11,42,17.60
2016,04,08,11,43,17.50
2016,04,08,11,44,17.40
2016,04,08,11,45,17.30
2016,04,08,11,46,17.30
2016,04,08,11,47,17.30
2016,04,08,11,48,17.30
2016,04,08,11,49,17.30
2016,04,08,11,50,17.30
2016,04,08,11,51,17.30
2016,04,08,11,52,17.30
2016,04,08,11,53,17.30
2016,04,08,11,54,17.40
2016,04,08,11,55,17.40
2016,04,08,11,56,17.40
2016,04,08,11,57,17.40
2016,04,08,11,58,17.30
2016,04,08,11,59,17.20
2016,04,08,12,00,17.00
2016,04,08,12,01,16.70
2016,04,08,12,02,16.40
2016,04,08,12,03,16.10
2016,04,08,12,04,16.00
2016,04,08,12,05,15.90
2016,04,08,12,06,15.90
2016,04,08,12,07,16.00
2016,04,08,12,08,16.00
2016,04,08,12,09,16.10
2016,04,08,12,10,16.20
2016,04,08,12,11,16.20
2016,04,08,12,12,16.40
2016,04,08,12,13,16.50
2016,04,08,12,14,16.70
2016,04,08,12,15,16.80
2016,04,08,12,16,16.90
2016,04,08,12,17,17.00
2016,04,08,12,18,17.10
2016,04,08,12,19,17.10
2016,04,08,12,20,17.10
2016,04,08,12,21,17.20
2016,04,08,12,22,17.20
2016,04,08,12,23,17.20
2016,04,08,12,24,17.20
2016,04,08,12,25,17.20
2016,04,08,12,26,17.20
2016,04,08,12,27,17.10
2016,04,08,12,28,17.10
2016,04,08,12,29,17.10
2016,04,08,12,30,17.10
2016,04,08,12,31,17.10
2016,04,08,12,32,17.20
2016,04,08,12,33,17.20
2016,04,08,12,34,17.30
2016,04,08,12,35,17.30
2016,04,08,12,36,17.40
2016,04,08,12,37,17.50
2016,04,08,12,38,17.50
2016,04,08,12,39,17.60
2016,04,08,12,40,17.60
2016,04,08,12,41,17.60
2016,04,08,12,42,17.50
2016,04,08,12,43,17.40
2016,04,08,12,44,17.40
2016,04,08,12,45,17.30
2016,04,08,12,46,17.30
2016,04,08,12,47,17.20
2016,04,08,12,48,17.10
2016,04,08,12,49,17.00
2016,04,08,12,50,16.80
2016,04,08,12,51,16.70
2016,04,08,12,52,16.50
2016,04,08,12,53,16.40
2016,04,08,12,54,16.20
2016,04,08,12,55,16.10
2016,04,08,12,56,16.00
2016,04,08,12,57,15.90
2016,04,08,12,58,15.80
2016,04,08,12,59,15.70
2016,04,08,13,00,15.70
2016,04,08,13,01,15.70
2016,04,08,13,02,15.80
2016,04,08,13,03,15.90
2016,04,08,13,04,15.90
2016,04,08,13,05,16.00
2016,04,08,13,06,16.10
2016,04,08,13,07,16.20
2016,04,08,13,08,16.20
2016,04,08,13,09,16.30
2016,04,08,13,10,16.40
2016,04,08,13,11,16.40
2016,04,08,13,12,16.30
2016,04,08,13,13,16.20
2016,04,08,13,14,16.10
2016,04,08,13,15,16.00
2016,04,08,13,16,15.90
2016,04,08,13,17,15.90
2016,04,08,13,18,15.80
2016,04,08,13,19,15.90
2016,04,08,13,20,15.90
2016,04,08,13,21,15.90
2016,04,08,13,22,16.00
2016,04,08,13,23,16.10
2016,04,08,13,24,16.10
2016,04,08,13,25,16.20
2016,04,08,13,26,16.20
2016,04,08,13,27,16.20
2016,04,08,13,28,16.30
2016,04,08,13,29,16.30
2016,04,08,13,30,16.30
2016,04,08,13,31,16.20
2016,04,08,13,32,16.10
2016,04,08,13,33,15.90
2016,04,08,13,34,15.90
2016,04,08,13,35,15.90
2016,04,08,13,36,16.00
2016,04,08,13,37,16.00
2016,04,08,13,38,15.90
2016,04,08,13,39,15.80
2016,04,08,13,40,15.60
2016,04,08,13,41,15.50
2016,04,08,13,42,15.50
2016,04,08,13,43,15.50
2016,04,08,13,44,15.60
2016,04,08,13,45,15.70
2016,04,08,13,46,15.80
2016,04,08,13,47,15.90
2016,04,08,13,48,16.00
2016,04,08,13,49,16.10
2016,04,08,13,50,16.20
2016,04,08,13,51,16.30
2016,04,08,13,52,16.40
2016,04,08,13,53,16.50
2016,04,08,13,54,16.70
2016,04,08,13,55,16.80
2016,04,08,13,56,16.80
2016,04,08,13,57,17.00
2016,04,08,13,58,17.10
2016,04,08,13,59,17.20
2016,04,08,14,00,17.20
2016,04,08,14,01,17.10
2016,04,08,14,02,17.10
2016,04,08,14,03,17.00
2016,04,08,14,04,16.90
2016,04,08,14,05,16.80
2016,04,08,14,06,16.80
2016,04,08,14,07,16.80
2016,04,08,14,08,16.80
2016,04,08,14,09,16.70
2016,04,08,14,10,16.70
2016,04,08,14,11,16.60
2016,04,08,14,12,16.50
2016,04,08,14,13,16.30
2016,04,08,14,14,16.10
2016,04,08,14,15,15.90
2016,04,08,14,16,15.80
2016,04,08,14,17,15.70
2016,04,08,14,18,15.80
2016,04,08,14,19,15.80
2016,04,08,14,20,15.80
2016,04,08,14,21,15.70
2016,04,08,14,22,15.60
2016,04,08,14,23,15.50
2016,04,08,14,24,15.50
2016,04,08,14,25,15.60
2016,04,08,14,26,15.70
2016,04,08,14,27,15.80
2016,04,08,14,28,15.80
2016,04,08,14,29,15.80
2016,04,08,14,30,15.80
2016,04,08,14,31,15.80
2016,04,08,14,32,15.80
2016,04,08,14,33,15.90
2016,04,08,14,34,16.10
2016,04,08,14,35,16.30
2016,04,08,14,36,16.40
2016,04,08,14,37,16.40
2016,04,08,14,38,16.40
2016,04,08,14,39,16.30
2016,04,08,14,40,16.20
2016,04,08,14,41,16.20
2016,04,08,14,42,16.00
2016,04,08,14,43,16.00
2016,04,08,14,44,15.90
2016,04,08,14,45,15.70
2016,04,08,14,46,15.70
2016,04,08,14,47,15.70
2016,04,08,14,48,15.70
2016,04,08,14,49,15.80
2016,04,08,14,50,15.90
2016,04,08,14,51,16.00
2016,04,08,14,52,16.10
2016,04,08,14,53,16.20
2016,04,08,14,54,16.30
2016,04,08,14,55,16.30
2016,04,08,14,56,16.40
2016,04,08,14,57,16.50
2016,04,08,14,58,16.60
2016,04,08,14,59,16.60
2016,04,08,15,00,16.60
2016,04,08,15,01,16.60
2016,04,08,15,02,16.60
2016,04,08,15,03,16.60
2016,04,08,15,04,16.70
2016,04,08,15,05,16.70
2016,04,08,15,06,16.70
2016,04,08,15,07,16.70
2016,04,08,15,08,16.70
2016,04,08,15,09,16.70
2016,04,08,15,10,16.70
2016,04,08,15,11,16.70
2016,04,08,15,12,16.70
2016,04,08,15,13,16.80
2016,04,08,15,14,16.80
2016,04,08,15,15,16.90
2016,04,08,15,16,16.90
2016,04,08,15,17,16.90
2016,04,08,15,18,17.00
2016,04,08,15,19,17.10
2016,04,08,15,20,17.10
2016,04,08,15,21,17.00
2016,04,08,15,22,17.00
2016,04,08,15,23,16.90
2016,04,08,15,24,16.80
2016,04,08,15,25,16.80
2016,04,08,15,26,16.80
2016,04,08,15,27,16.80
2016,04,08,15,28,16.90
2016,04,08,15,29,17.00
2016,04,08,15,30,17.00
2016,04,08,15,31,17.10
2016,04,08,15,32,17.20
2016,04,08,15,33,17.30
2016,04,08,15,34,17.40
2016,04,08,15,35,17.50
2016,04,08,15,36,17.70
2016,04,08,15,37,17.80
2016,04,08,15,38,17.80
2016,04,08,15,39,18.00
2016,04,08,15,40,18.10
2016,04,08,15,41,18.20
2016,04,08,15,42,18.20
2016,04,08,15,43,18.20
2016,04,08,15,44,18.20
2016,04,08,15,45,18.20
2016,04,08,15,46,18.20
2016,04,08,15,47,18.20
2016,04,08,15,48,18.30
2016,04,08,15,49,18.30
2016,04,08,15,50,18.30
2016,04,08,15,51,18.40
2016,04,08,15,52,18.40
2016,04,08,15,53,18.40
2016,04,08,15,54,18.50
2016,04,08,15,55,18.60
2016,04,08,15,56,18.70
2016,04,08,15,57,18.80
2016,04,08,15,58,18.90
2016,04,08,15,59,18.90
2016,04,08,16,00,19.00
2016,04,08,16,01,19.00
2016,04,08,16,02,19.00
2016,04,08,16,03,19.00
2016,04,08,16,04,19.00
2016,04,08,16,05,19.10
2016,04,08,16,06,19.10
2016,04,08,16,07,19.20
2016,04,08,16,08,19.20
2016,04,08,16,09,19.30
2016,04,08,16,10,19.30
2016,04,08,16,11,19.30
2016,04,08,16,12,19.30
2016,04,08,16,13,19.30
2016,04,08,16,14,19.30
2016,04,08,16,15,19.20
2016,04,08,16,16,19.20
2016,04,08,16,17,19.10
2016,04,08,16,18,19.10
2016,04,08,16,19,19.00
2016,04,08,16,20,18.80
2016,04,08,16,21,18.60
2016,04,08,16,22,18.50
2016,04,08,16,23,18.50
2016,04,08,16,24,18.40
2016,04,08,16,25,18.40
2016,04,08,16,26,18.40
2016,04,08,16,27,18.50
2016,04,08,16,28,18.40
2016,04,08,16,29,18.30
2016,04,08,16,30,18.20
2016,04,08,16,31,18.10
2016,04,08,16,32,18.10
2016,04,08,16,33,18.10
2016,04,08,16,34,18.10
2016,04,08,16,35,18.10
2016,04,08,16,36,18.10
2016,04,08,16,37,18.10
2016,04,08,16,38,18.10
2016,04,08,16,39,18.10
2016,04,08,16,40,18.10
2016,04,08,16,41,18.10
2016,04,08,16,42,18.20
2016,04,08,16,43,18.20
2016,04,08,16,44,18.30
2016,04,08,16,45,18.30
2016,04,08,16,46,18.40
2016,04,08,16,47,18.40
2016,04,08,16,48,18.50
2016,04,08,16,49,18.50
2016,04,08,16,50,18.60
2016,04,08,16,51,18.60
2016,04,08,16,52,18.60
2016,04,08,16,53,18.60
2016,04,08,16,54,18.70
2016,04,08,16,55,18.70
2016,04,08,16,56,18.70
2016,04,08,16,57,18.70
2016,04,08,16,58,18.70
2016,04,08,16,59,18.70
2016,04,08,17,00,18.70
2016,04,08,17,01,18.60
2016,04,08,17,02,18.50
2016,04,08,17,03,18.40
2016,04,08,17,04,18.40
2016,04,08,17,05,18.40
2016,04,08,17,06,18.50
2016,04,08,17,07,18.50
2016,04,08,17,08,18.40
2016,04,08,17,09,18.40
2016,04,08,17,10,18.40
2016,04,08,17,11,18.30
2016,04,08,17,12,18.30
2016,04,08,17,13,18.20
2016,04,08,17,14,18.20
2016,04,08,17,15,18.20
2016,04,08,17,16,18.20
2016,04,08,17,17,18.20
2016,04,08,17,18,18.20
2016,04,08,17,19,18.20
2016,04,08,17,20,18.30
2016,04,08,17,21,18.30
2016,04,08,17,22,18.30
2016,04,08,17,23,18.30
2016,04,08,17,24,18.40
2016,04,08,17,25,18.40
2016,04,08,17,26,18.40
2016,04,08,17,27,18.40
2016,04,08,17,28,18.40
2016,04,08,17,29,18.40
2016,04,08,17,30,18.40
2016,04,08,17,31,18.40
2016,04,08,17,32,18.50
2016,04,08,17,33,18.50
2016,04,08,17,34,18.50
2016,04,08,17,35,18.50
2016,04,08,17,36,18.40
2016,04,08,17,37,18.40
2016,04,08,17,38,18.40